FW4083 Weather Reports


Display with metric or nautical units.
time (UTC)temp
F
wind
direction
speed
MPH
gust
MPH
rain 1hr
in
rain 24hr
in
rain mn
in
humidity
%
barometer
mb
20260502163015 62 33 1.0 5.0 0.00 0.00 0.00 37 1014.1
20260502161502 61 165 2.0 7.0 0.00 0.00 0.00 38 1014.0
20260502151559 54 129 2.0 10.0 0.00 0.00 0.00 46 1014.4
20260502123014 41 117 6.0 10.0 0.00 0.00 0.00 63 1014.7
20260502121511 40 360 7.0 11.0 0.00 0.00 0.00 63 1014.6
20260502114505 40 360 5.0 9.0 0.00 0.00 0.00 62 1014.7
20260502113005 41 360 5.0 9.0 0.00 0.00 0.00 61 1014.7
20260502111504 41 360 4.0 8.0 0.00 0.00 0.00 61 1014.7
20260502110003 41 360 1.0 4.0 0.00 0.00 0.00 61 1014.7
20260502104600 41 360 4.0 9.0 0.00 0.00 0.00 60 1014.6
20260502103100 42 360 3.0 9.0 0.00 0.00 0.00 59 1014.7
20260502101625 43 105 4.0 8.0 0.00 0.00 0.00 58 1014.6
20260502100104 42 113 0.0 2.0 0.00 0.00 0.00 58 1014.7
20260502090109 41 290 0.0 3.0 0.00 0.00 0.00 59 1014.6
20260502070057 47 360 10.0 14.0 0.00 0.00 0.00 46 1014.1
20260502064517 47 360 8.0 11.0 0.00 0.00 0.00 46 1014.1
20260502063014 48 128 9.0 12.0 0.00 0.00 0.00 46 1014.0
20260502061544 48 360 10.0 15.0 0.00 0.00 0.00 45 1013.9
20260502060043 49 360 8.0 12.0 0.00 0.00 0.00 45 1014.0
20260502054542 50 360 8.0 13.0 0.00 0.00 0.00 43 1014.0
20260502053040 51 360 8.0 12.0 0.00 0.00 0.00 42 1014.0
20260502051558 51 360 7.0 11.0 0.00 0.00 0.00 42 1014.0
20260502050039 52 120 7.0 12.0 0.00 0.00 0.00 41 1014.1
20260502044537 52 360 7.0 11.0 0.00 0.00 0.00 40 1014.1
20260502043037 53 113 7.0 10.0 0.00 0.00 0.00 39 1014.2
20260502041537 53 128 7.0 11.0 0.00 0.00 0.00 36 1014.2
20260502040045 54 107 6.0 9.0 0.00 0.00 0.00 35 1014.0
20260502034533 55 106 4.0 8.0 0.00 0.00 0.00 34 1013.7
20260502033032 56 103 4.0 8.0 0.00 0.00 0.00 32 1013.8
20260502031531 58 360 2.0 5.0 0.00 0.00 0.00 30 1013.7
20260502030033 60 196 1.0 3.0 0.00 0.00 0.00 27 1013.6
20260502024502 62 360 0.0 2.0 0.00 0.00 0.00 25 1013.5
20260502023003 62 267 0.0 3.0 0.00 0.00 0.00 21 1013.4
20260502021557 63 268 1.0 4.0 0.00 0.00 0.00 21 1013.4
20260502020107 64 360 2.0 4.0 0.00 0.00 0.00 20 1013.4
20260502014557 64 360 4.0 8.0 0.00 0.00 0.00 20 1013.4
20260502013104 64 360 3.0 8.0 0.00 0.00 0.00 20 1013.5
20260502011604 64 360 4.0 9.0 0.00 0.00 0.00 20 1013.7
20260502010051 65 360 4.0 9.0 0.00 0.00 0.00 20 1013.7
20260502004605 65 360 3.0 12.0 0.00 0.00 0.00 21 1013.7
20260502003054 64 289 8.0 12.0 0.00 0.00 0.00 21 1013.8
20260502001605 65 290 6.0 13.0 0.00 0.00 0.00 21 1013.7
20260502000046 65 360 6.0 11.0 0.00 0.00 0.00 23 1013.8
20260501234550 65 331 7.0 11.0 0.00 0.00 0.00 24 1013.9
20260501233053 64 360 5.0 10.0 0.00 0.00 0.00 24 1013.9
20260501231542 64 292 7.0 14.0 0.00 0.00 0.00 24 1013.8
20260501230039 64 286 5.0 14.0 0.00 0.00 0.00 23 1014.0
20260501224538 64 360 4.0 12.0 0.00 0.00 0.00 24 1014.1
20260501223035 64 303 4.0 12.0 0.00 0.00 0.00 25 1014.2
20260501221534 64 287 6.0 10.0 0.00 0.00 0.00 26 1014.4
20260501220002 63 306 5.0 14.0 0.00 0.00 0.00 29 1014.6
20260501214500 63 360 6.0 22.0 0.00 0.00 0.00 29 1014.8
20260501213030 63 331 7.0 13.0 0.00 0.00 0.00 30 1014.9
20260501211527 63 331 3.0 10.0 0.00 0.00 0.00 31 1015.1
20260501210023 63 346 4.0 11.0 0.00 0.00 0.00 31 1015.2
20260501204522 63 321 5.0 11.0 0.00 0.00 0.00 32 1015.3
20260501203022 62 295 7.0 14.0 0.00 0.00 0.00 33 1015.5
20260501201534 62 16 3.0 6.0 0.00 0.00 0.00 33 1015.6
20260501200044 61 51 2.0 8.0 0.00 0.00 0.00 34 1015.7
20260501194546 61 30 6.0 12.0 0.00 0.00 0.00 35 1015.9
20260501193010 60 120 2.0 6.0 0.00 0.00 0.00 36 1016.0
20260501191512 60 351 3.0 11.0 0.00 0.00 0.00 36 1016.3
20260501190039 59 155 0.0 11.0 0.00 0.00 0.00 36 1016.3
20260501184535 59 10 4.0 9.0 0.00 0.00 0.00 36 1016.5
20260501183003 58 42 2.0 6.0 0.00 0.00 0.00 37 1016.7
20260501181610 58 331 4.0 11.0 0.00 0.00 0.00 38 1016.8
20260501180057 57 295 4.0 9.0 0.00 0.00 0.00 40 1017.0
20260501174556 56 360 1.0 8.0 0.00 0.00 0.00 39 1017.2
20260501173102 56 25 4.0 8.0 0.00 0.00 0.00 41 1017.4